Location: Unspecified
(36.5600°N, 136.6600°E)
Time: 18:40:15
(UTC+09:00)

BlueWalker 3 - Pass Details

Date: 21 June 2024
Orbit: 480 x 491 km, 53.2° (Epoch: 19 July)

Event Time Altitude Azimuth Distance (km) Brightness Sun altitude
Rises 01:25:00 0° 327° (NNW) 2,538 6.0 -26.4°
Reaches altitude 10° 01:28:33 10° 2° (N) 1,657 5.4 -26.1°
Maximum altitude 01:29:50 11° 22° (NNE) 1,570 5.4 -26.0°
Drops below altitude 10° 01:31:07 10° 42° (NE) 1,656 5.5 -25.9°
Sets 01:34:40 0° 78° (ENE) 2,535 6.0 -25.6°
